Roseburg, OR

10:22 PM PDT on May 27, 2017 (GMT -0700)
Roseburg Regional

Weather History for KRBG - March, 2014

Change the Weather History Date:

Thursday, March 6, 2014

  Actual Average Record
Temperature  
Mean Temperature 51 °F 48 °F  
Max Temperature 56 °F 57 °F 71 °F (2015)
Min Temperature 45 °F 39 °F 19 °F (1956)
Degree Days  
Heating Degree Days 14 17  
Month to date heating degree days 56 107  
Since 1 July heating degree days 2983 2976  
Cooling Degree Days 0 0  
Month to date cooling degree days 0 0  
Year to date cooling degree days 0 0  
Moisture  
Dew Point 43 °F    
Average Humidity 76    
Maximum Humidity 92    
Minimum Humidity 59    
Precipitation  
Precipitation 0.44 in 0.10 in 0.96 in (1961)
Month to date precipitation 1.09 0.60  
Year to date precipitation 8.54 9.64  
Sea Level Pressure  
Sea Level Pressure 29.99 in    
Wind  
Wind Speed 6 mph (South)    
Max Wind Speed 15 mph    
Max Gust Speed 26 mph    
Visibility 9 miles    
Events Rain    
T = Trace of Precipitation, MM = Missing Value Source: NWS Daily Summary

Daily Weather History Graph

Daily Weather History Graph

Search for Another Location

Airport or City:

Trip Planner

Search our weather history database for the weather conditions in past years. The results will help you decide how hot, cold, wet, or windy it might be!

Date:

Astronomy

Mar. 06, 2014 Rise Set
Actual Time 6:41 AM PST 6:08 PM PST
Civil Twilight 6:12 AM PST 6:37 PM PST
Nautical Twilight 5:39 AM PST 7:10 PM PST
Astronomical Twilight 5:06 AM PST 7:43 PM PST
Moon 9:43 AM PST (3/6) No Moon Set
Length of Visible Light 12h 24m
Length of Day
11h 27m
Waxing Crescent, 33% of the Moon is Illuminated
Mar 6
Waxing Crescent
Mar 8
First Quarter
Mar 16
Full
Mar 23
Last Quarter
Mar 30
New

Hourly Weather History & Observations

Time (PST) Temp. Windchill Dew Point Humidity Pressure Visibility Wind Dir Wind Speed Gust Speed Precip Events Conditions
12:53 AM 55.0 °F - 42.1 °F 62% 29.79 in 10.0 mi South 9.2 mph 18.4 mph 0.00 in Rain Light Rain
1:53 AM 53.1 °F - 42.1 °F 66% 29.79 in 10.0 mi South 9.2 mph - 0.01 in   Partly Cloudy
2:53 AM 52.0 °F - 42.1 °F 69% 29.78 in 10.0 mi South 8.1 mph - 0.00 in   Mostly Cloudy
3:53 AM 53.1 °F - 42.1 °F 66% 29.79 in 10.0 mi South 8.1 mph - 0.00 in   Mostly Cloudy
4:53 AM 50.0 °F - 44.1 °F 80% 29.81 in 10.0 mi Calm Calm - 0.08 in Rain Light Rain
5:53 AM 50.0 °F - 43.0 °F 77% 29.82 in 10.0 mi SSE 11.5 mph - 0.00 in   Scattered Clouds
6:53 AM 51.1 °F - 42.1 °F 71% 29.80 in 10.0 mi South 9.2 mph - 0.00 in   Scattered Clouds
7:53 AM 54.0 °F - 43.0 °F 66% 29.80 in 10.0 mi South 9.2 mph - 0.00 in   Mostly Cloudy
8:53 AM 54.0 °F - 41.0 °F 62% 29.85 in 9.0 mi South 10.4 mph 16.1 mph 0.01 in Rain Light Rain
9:10 AM 52.0 °F - 43.0 °F 71% 29.89 in 1.8 mi SW 13.8 mph 24.2 mph 0.04 in Rain Rain
9:53 AM 48.0 °F - 43.0 °F 83% 29.94 in 1.0 mi South 8.1 mph - 0.23 in Rain Rain
10:14 AM 48.0 °F - 43.0 °F 83% 29.95 in 3.0 mi South 6.9 mph - 0.08 in Rain Light Rain
10:53 AM 48.9 °F - 44.1 °F 83% 29.98 in 10.0 mi SSW 4.6 mph - 0.09 in Rain Light Rain
11:53 AM 51.1 °F - 44.1 °F 77% 30.01 in 10.0 mi Variable 4.6 mph - 0.01 in Rain Light Rain
12:53 PM 52.0 °F - 46.0 °F 80% 30.03 in 10.0 mi South 9.2 mph - 0.00 in Rain Light Rain
1:53 PM 53.1 °F - 45.0 °F 74% 30.04 in 10.0 mi South 8.1 mph - 0.01 in   Overcast
2:53 PM 54.0 °F - 44.1 °F 69% 30.06 in 10.0 mi Variable 6.9 mph - N/A   Overcast
3:53 PM 55.0 °F - 44.1 °F 67% 30.08 in 10.0 mi Variable 6.9 mph - N/A   Overcast
4:53 PM 55.0 °F - 44.1 °F 67% 30.11 in 10.0 mi SW 3.5 mph - N/A   Overcast
5:53 PM 53.1 °F - 43.0 °F 69% 30.13 in 10.0 mi Variable 4.6 mph - N/A   Partly Cloudy
6:53 PM 51.1 °F - 42.1 °F 71% 30.15 in 10.0 mi SSE 3.5 mph - N/A   Partly Cloudy
7:53 PM 46.9 °F - 43.0 °F 86% 30.18 in 10.0 mi Calm Calm - N/A   Scattered Clouds
8:53 PM 48.0 °F - 43.0 °F 83% 30.19 in 10.0 mi Calm Calm - N/A   Mostly Cloudy
9:53 PM 45.0 °F 43.5 °F 42.1 °F 90% 30.22 in 10.0 mi SSE 3.5 mph - N/A   Scattered Clouds
10:53 PM 46.0 °F - 43.0 °F 89% 30.23 in 10.0 mi Calm Calm - N/A   Overcast
11:53 PM 46.0 °F - 42.1 °F 86% 30.23 in 10.0 mi Calm Calm - N/A   Mostly Cloudy